Skip Page Navigation
NASA JPL Caltech
NASA Logo - Jet Propulsion Laboratory + View the NASA Portal
+ Center for Near-Earth Object Studies
JPL Home Earth Solar System Stars & Galaxies Technology
JPL Solar System Dynamics
BODIES ORBITS EPHEMERIDES TOOLS PHYSICAL DATA DISCOVERY FAQ SITE MAP
IMPORTANT: The SSD Announcement email list is now available. Major changes are coming in the near future, including possible hostname and/or URL changes. To be notified of such changes, subscribe to this email list.

Please visit this page for more details.


JPL Small-Body Database Browser
Search: [ help ]  
65402 (2002 RU92)
Classification: Main-belt Asteroid          SPK-ID: 2065402
Ephemeris | Orbit Diagram | Orbital Elements | Mission Design | Physical Parameters | Discovery Circumstances | Close-Approach Data ]

[ show orbit diagram ]
Orbital Elements at Epoch 2459000.5 (2020-May-31.0) TDB
Reference: JPL 11 (heliocentric ecliptic J2000)
 Element Value Uncertainty (1-sigma)   Units 
e .2258101039608189 5.162e-08  
a 2.861140878797019 2.4603e-08 au
q 2.215066359509315 1.4435e-07 au
i 1.203694972958258 5.7176e-06 deg
node 140.4777010881015 0.0003607 deg
peri 173.7295577868931 0.00036134 deg
M 265.7822938893614 2.8383e-05 deg
tp 2459463.133754197051
(2021-Sep-05.63375420)
0.00014358 TDB
period 1767.694824955334
4.84
2.2801e-05
6.243e-08
d
yr
n .2036550624676386 2.6269e-09 deg/d
Q 3.507215398084722 3.0159e-08 au
  Orbit Determination Parameters
   # obs. used (total)      285  
   data-arc span      10049 days (27.51 yr)  
   first obs. used      1992-07-30  
   last obs. used      2020-02-03  
   planetary ephem.      DE431  
   SB-pert. ephem.      SB431-N16  
   condition code      0  
   norm. resid. RMS      .63039  
   source      ORB  
   producer      Otto Matic  
   solution date      2020-Feb-23 14:39:07  

Additional Information
 Earth MOID = 1.20121 au 
 Jupiter MOID = 1.79438 au 
 T_jup = 3.263 
[ show covariance matrix ]

Ephemeris | Orbit Diagram | Orbital Elements | Mission Design | Physical Parameters | Discovery Circumstances | Close-Approach Data ]

Physical Parameter Table
Parameter Symbol Value Units Sigma Reference Notes
absolute magnitude H 16.1   n/a MPO247840  

65402 (2002 RU92)          Discovered 2002-Sep-05 by LINEAR at Socorro
Reference: 20030614/Numbers.arcLast Updated: 2004-04-19

[ show close-approach data ]
Alternate Designations
 2002 RU92 = 1996 GD14 
Ephemeris | Orbit Diagram | Orbital Elements | Mission Design | Physical Parameters | Discovery Circumstances | Close-Approach Data ]
ABOUT SSD CREDITS/AWARDS PRIVACY/COPYRIGHT GLOSSARY LINKS
FirstGov 2020-Apr-01 12:43 UT
(server date/time)  
NASA Home Page
Site Manager:   Ryan S. Park
Webmaster  Alan B. Chamberlin